| time (UTC) | temp C | wind direction | speed KPH | gust KPH | rain 1hr cm | rain 24hr cm | rain mn cm | humidity % | barometer mb |
| 20260503013632 | 5 | 213 | 3.2 | 4.8 | 0.00 | 0.00 | 0.00 | 36 | 1026.2 |
| 20260503013130 | 6 | 216 | 3.2 | 4.8 | 0.00 | 0.00 | 0.00 | 31 | 1026.0 |
| 20260503012627 | 6 | 224 | 3.2 | 3.2 | 0.00 | 0.00 | 0.00 | 33 | 1026.1 |
| 20260503012124 | 6 | 229 | 3.2 | 4.8 | 0.00 | 0.00 | 0.00 | 31 | 1026.1 |
| 20260503011620 | 6 | 235 | 1.6 | 3.2 | 0.00 | 0.00 | 0.00 | 38 | 1026.1 |
| 20260503011118 | 6 | 227 | 3.2 | 3.2 | 0.00 | 0.00 | 0.00 | 35 | 1026.0 |
| 20260503010614 | 7 | 271 | 3.2 | 4.8 | 0.00 | 0.00 | 0.00 | 27 | 1026.0 |
| 20260503010111 | 8 | 244 | 1.6 | 1.6 | 0.00 | 0.00 | 0.00 | 31 | 1026.1 |
| 20260503005608 | 9 | 67 | 6.4 | 6.4 | 0.00 | 0.00 | 0.00 | 23 | 1026.0 |
| 20260503005106 | 8 | 53 | 3.2 | 4.8 | 0.00 | 0.00 | 0.00 | 23 | 1026.0 |
| 20260503004601 | 8 | 241 | 0.0 | 3.2 | 0.00 | 0.00 | 0.00 | 33 | 1026.1 |
| 20260503004100 | 8 | 253 | 0.0 | 3.2 | 0.00 | 0.00 | 0.00 | 26 | 1025.7 |
| 20260503003556 | 9 | 263 | 0.0 | 1.6 | 0.00 | 0.00 | 0.00 | 26 | 1025.8 |
| 20260503003053 | 9 | 256 | 0.0 | 3.2 | 0.00 | 0.00 | 0.00 | 28 | 1025.8 |
| 20260503002550 | 10 | 242 | 1.6 | 4.8 | 0.00 | 0.00 | 0.00 | 24 | 1026.0 |
| 20260503002047 | 10 | 265 | 0.0 | 3.2 | 0.00 | 0.00 | 0.00 | 24 | 1026.1 |
| 20260503001543 | 10 | 77 | 3.2 | 4.8 | 0.00 | 0.00 | 0.00 | 24 | 1026.1 |
| 20260503001041 | 10 | 258 | 0.0 | 3.2 | 0.00 | 0.00 | 0.00 | 23 | 1026.4 |
| 20260503000538 | 10 | 83 | 3.2 | 12.9 | 0.00 | 0.00 | 0.00 | 21 | 1025.8 |
| 20260503000035 | 11 | 183 | 1.6 | 3.2 | 0.00 | 0.00 | 0.00 | 22 | 1026.2 |
| 20260502235531 | 11 | 208 | 1.6 | 3.2 | 0.00 | 0.00 | 0.00 | 25 | 1026.0 |
| 20260502235030 | 10 | 276 | 3.2 | 4.8 | 0.00 | 0.00 | 0.00 | 22 | 1026.0 |
| 20260502234525 | 11 | 345 | 4.8 | 11.3 | 0.00 | 0.00 | 0.00 | 22 | 1026.1 |
| 20260502234023 | 11 | 225 | 6.4 | 9.7 | 0.00 | 0.00 | 0.00 | 22 | 1026.2 |
| 20260502233524 | 11 | 239 | 3.2 | 6.4 | 0.00 | 0.00 | 0.00 | 22 | 1026.1 |
| 20260502233021 | 11 | 342 | 1.6 | 4.8 | 0.00 | 0.00 | 0.00 | 22 | 1026.2 |
| 20260502232517 | 11 | 143 | 4.8 | 6.4 | 0.00 | 0.00 | 0.00 | 25 | 1026.2 |
| 20260502232014 | 11 | 59 | 4.8 | 9.7 | 0.00 | 0.00 | 0.00 | 23 | 1026.0 |
| 20260502231511 | 11 | 262 | 1.6 | 9.7 | 0.00 | 0.00 | 0.00 | 24 | 1026.2 |
| 20260502231009 | 10 | 296 | 0.0 | 6.4 | 0.00 | 0.00 | 0.00 | 26 | 1026.4 |
| 20260502230507 | 11 | 62 | 4.8 | 12.9 | 0.00 | 0.00 | 0.00 | 25 | 1026.2 |
| 20260502230006 | 10 | 315 | 4.8 | 6.4 | 0.00 | 0.00 | 0.00 | 29 | 1026.1 |
| 20260502225501 | 10 | 337 | 3.2 | 6.4 | 0.00 | 0.00 | 0.00 | 26 | 1026.2 |
| 20260502224958 | 10 | 305 | 1.6 | 3.2 | 0.00 | 0.00 | 0.00 | 25 | 1026.0 |
| 20260502224454 | 11 | 305 | 3.2 | 4.8 | 0.00 | 0.00 | 0.00 | 26 | 1026.1 |
| 20260502223951 | 11 | 305 | 6.4 | 11.3 | 0.00 | 0.00 | 0.00 | 25 | 1026.2 |
| 20260502223449 | 11 | 290 | 6.4 | 11.3 | 0.00 | 0.00 | 0.00 | 26 | 1026.4 |
| 20260502222947 | 10 | 256 | 1.6 | 9.7 | 0.00 | 0.00 | 0.00 | 24 | 1026.2 |
| 20260502222444 | 10 | 135 | 9.7 | 14.5 | 0.00 | 0.00 | 0.00 | 27 | 1026.4 |
| 20260502221939 | 11 | 258 | 0.0 | 3.2 | 0.00 | 0.00 | 0.00 | 28 | 1026.4 |
| 20260502221436 | 10 | 254 | 0.0 | 1.6 | 0.00 | 0.00 | 0.00 | 31 | 1026.2 |
| 20260502220933 | 10 | 273 | 3.2 | 4.8 | 0.00 | 0.00 | 0.00 | 30 | 1026.6 |
| 20260502220428 | 10 | 265 | 3.2 | 9.7 | 0.00 | 0.00 | 0.00 | 29 | 1026.5 |
| 20260502215925 | 10 | 152 | 4.8 | 11.3 | 0.00 | 0.00 | 0.00 | 30 | 1026.6 |
| 20260502215423 | 9 | 356 | 6.4 | 9.7 | 0.00 | 0.00 | 0.00 | 31 | 1026.5 |
| 20260502214920 | 9 | 299 | 1.6 | 12.9 | 0.00 | 0.00 | 0.00 | 32 | 1026.6 |
| 20260502214416 | 9 | 30 | 4.8 | 9.7 | 0.00 | 0.00 | 0.00 | 30 | 1026.8 |
| 20260502213914 | 10 | 254 | 1.6 | 9.7 | 0.00 | 0.00 | 0.00 | 32 | 1026.8 |
| 20260502213410 | 10 | 330 | 3.2 | 14.5 | 0.00 | 0.00 | 0.00 | 32 | 1026.9 |
| 20260502212909 | 11 | 349 | 6.4 | 9.7 | 0.00 | 0.00 | 0.00 | 31 | 1026.9 |
| 20260502212408 | 10 | 5 | 3.2 | 9.7 | 0.00 | 0.00 | 0.00 | 31 | 1026.9 |
| 20260502211904 | 10 | 354 | 1.6 | 16.1 | 0.00 | 0.00 | 0.00 | 33 | 1026.9 |
| 20260502211400 | 10 | 356 | 6.4 | 11.3 | 0.00 | 0.00 | 0.00 | 30 | 1026.9 |
| 20260502210858 | 11 | 69 | 11.3 | 14.5 | 0.00 | 0.00 | 0.00 | 30 | 1027.3 |
| 20260502210354 | 11 | 315 | 3.2 | 4.8 | 0.00 | 0.00 | 0.00 | 32 | 1027.3 |
| 20260502205852 | 11 | 245 | 3.2 | 16.1 | 0.00 | 0.00 | 0.00 | 30 | 1027.4 |
| 20260502205347 | 11 | 229 | 4.8 | 11.3 | 0.00 | 0.00 | 0.00 | 28 | 1027.4 |
| 20260502204845 | 11 | 346 | 6.4 | 11.3 | 0.00 | 0.00 | 0.00 | 29 | 1027.3 |
| 20260502204342 | 10 | 359 | 8.0 | 12.9 | 0.00 | 0.00 | 0.00 | 30 | 1027.5 |
| 20260502203840 | 11 | 260 | 1.6 | 9.7 | 0.00 | 0.00 | 0.00 | 29 | 1027.5 |
| 20260502203337 | 10 | 176 | 11.3 | 17.7 | 0.00 | 0.00 | 0.00 | 29 | 1027.4 |
| 20260502202832 | 11 | 42 | 8.0 | 11.3 | 0.00 | 0.00 | 0.00 | 28 | 1027.7 |
| 20260502202330 | 12 | 33 | 16.1 | 20.9 | 0.00 | 0.00 | 0.00 | 28 | 1027.7 |
| 20260502201828 | 10 | 336 | 3.2 | 11.3 | 0.00 | 0.00 | 0.00 | 31 | 1027.3 |
| 20260502201324 | 10 | 64 | 9.7 | 12.9 | 0.00 | 0.00 | 0.00 | 28 | 1027.5 |
| 20260502200820 | 10 | 293 | 4.8 | 9.7 | 0.00 | 0.00 | 0.00 | 26 | 1027.5 |
| 20260502200316 | 10 | 0 | 9.7 | 12.9 | 0.00 | 0.00 | 0.00 | 28 | 1027.7 |
| 20260502195814 | 11 | 356 | 8.0 | 12.9 | 0.00 | 0.00 | 0.00 | 28 | 1027.5 |
| 20260502195310 | 11 | 239 | 3.2 | 4.8 | 0.00 | 0.00 | 0.00 | 30 | 1027.3 |
| 20260502194807 | 11 | 262 | 3.2 | 4.8 | 0.00 | 0.00 | 0.00 | 27 | 1027.4 |
| 20260502194304 | 10 | 253 | 3.2 | 4.8 | 0.00 | 0.00 | 0.00 | 28 | 1027.7 |
| 20260502193800 | 10 | 91 | 8.0 | 12.9 | 0.00 | 0.00 | 0.00 | 26 | 1027.9 |
| 20260502193257 | 10 | 258 | 9.7 | 14.5 | 0.00 | 0.00 | 0.00 | 27 | 1027.8 |
| 20260502192752 | 10 | 294 | 1.6 | 11.3 | 0.00 | 0.00 | 0.00 | 32 | 1027.8 |
| 20260502192250 | 10 | 223 | 6.4 | 12.9 | 0.00 | 0.00 | 0.00 | 29 | 1027.8 |
| 20260502191746 | 10 | 259 | 4.8 | 11.3 | 0.00 | 0.00 | 0.00 | 28 | 1027.8 |
| 20260502191244 | 10 | 224 | 3.2 | 4.8 | 0.00 | 0.00 | 0.00 | 27 | 1027.9 |
| 20260502190741 | 9 | 230 | 4.8 | 12.9 | 0.00 | 0.00 | 0.00 | 28 | 1027.8 |
| 20260502190238 | 10 | 53 | 12.9 | 16.1 | 0.00 | 0.00 | 0.00 | 28 | 1028.1 |
| 20260502185733 | 9 | 340 | 8.0 | 12.9 | 0.00 | 0.00 | 0.00 | 31 | 1028.1 |
| 20260502185229 | 10 | 209 | 1.6 | 9.7 | 0.00 | 0.00 | 0.00 | 26 | 1028.1 |
| 20260502184726 | 10 | 229 | 6.4 | 9.7 | 0.00 | 0.00 | 0.00 | 25 | 1027.9 |
| 20260502184222 | 9 | 130 | 1.6 | 9.7 | 0.00 | 0.00 | 0.00 | 31 | 1028.1 |
| 20260502183719 | 10 | 323 | 1.6 | 9.7 | 0.00 | 0.00 | 0.00 | 27 | 1028.2 |
| 20260502183214 | 10 | 275 | 1.6 | 6.4 | 0.00 | 0.00 | 0.00 | 33 | 1028.2 |
| 20260502182710 | 8 | 28 | 3.2 | 6.4 | 0.00 | 0.00 | 0.00 | 29 | 1028.3 |
| 20260502182205 | 8 | 100 | 4.8 | 6.4 | 0.00 | 0.00 | 0.00 | 28 | 1028.5 |
| 20260502181703 | 8 | 29 | 3.2 | 11.3 | 0.00 | 0.00 | 0.00 | 29 | 1028.2 |
| 20260502181202 | 8 | 9 | 3.2 | 14.5 | 0.00 | 0.00 | 0.00 | 34 | 1028.3 |
| 20260502180659 | 10 | 156 | 1.6 | 6.4 | 0.00 | 0.00 | 0.00 | 30 | 1028.5 |
| 20260502180156 | 8 | 79 | 4.8 | 6.4 | 0.00 | 0.00 | 0.00 | 30 | 1028.7 |
| 20260502170120 | 8 | 234 | 3.2 | 4.8 | 0.00 | 0.00 | 0.00 | 32 | 1028.5 |
| 20260502164107 | 6 | 287 | 6.4 | 14.5 | 0.00 | 0.00 | 0.00 | 32 | 1028.3 |
| 20260502163603 | 7 | 348 | 6.4 | 11.3 | 0.00 | 0.00 | 0.00 | 32 | 1028.3 |
| 20260502163059 | 6 | 25 | 4.8 | 9.7 | 0.00 | 0.00 | 0.00 | 31 | 1028.3 |
| 20260502162556 | 7 | 315 | 12.9 | 14.5 | 0.00 | 0.00 | 0.00 | 32 | 1028.6 |
| 20260502162054 | 7 | 309 | 1.6 | 4.8 | 0.00 | 0.00 | 0.00 | 33 | 1028.5 |
| 20260502161550 | 6 | 333 | 4.8 | 11.3 | 0.00 | 0.00 | 0.00 | 34 | 1028.5 |
| 20260502161048 | 7 | 287 | 6.4 | 12.9 | 0.00 | 0.00 | 0.00 | 32 | 1028.3 |
| 20260502160546 | 6 | 253 | 0.0 | 6.4 | 0.00 | 0.00 | 0.00 | 35 | 1028.3 |
| 20260502151959 | 5 | 251 | 0.0 | 1.6 | 0.00 | 0.00 | 0.00 | 35 | 1028.6 |
| 20260502151455 | 5 | 325 | 8.0 | 9.7 | 0.00 | 0.00 | 0.00 | 34 | 1029.0 |
| 20260502150953 | 5 | 265 | 0.0 | 4.8 | 0.00 | 0.00 | 0.00 | 32 | 1028.9 |
| 20260502150450 | 5 | 297 | 1.6 | 3.2 | 0.00 | 0.00 | 0.00 | 34 | 1028.9 |
| 20260502130336 | 1 | 246 | 0.0 | 4.8 | 0.00 | 0.00 | 0.00 | 49 | 1028.5 |
| 20260502123318 | 0 | 246 | 3.2 | 3.2 | 0.00 | 0.00 | 0.00 | 57 | 1028.3 |
| 20260502122815 | 0 | 228 | 3.2 | 6.4 | 0.00 | 0.00 | 0.00 | 55 | 1028.2 |
| 20260502122310 | 0 | 225 | 4.8 | 4.8 | 0.00 | 0.00 | 0.00 | 55 | 1028.3 |
| 20260502121809 | 0 | 220 | 4.8 | 4.8 | 0.00 | 0.00 | 0.00 | 55 | 1028.3 |
| 20260502121306 | 0 | 229 | 3.2 | 4.8 | 0.00 | 0.00 | 0.00 | 55 | 1028.3 |
| 20260502120803 | 0 | 239 | 4.8 | 6.4 | 0.00 | 0.00 | 0.00 | 54 | 1028.2 |
| 20260502120300 | 0 | 219 | 4.8 | 6.4 | 0.00 | 0.00 | 0.00 | 54 | 1027.8 |
| 20260502115757 | -1 | 235 | 3.2 | 4.8 | 0.00 | 0.00 | 0.00 | 57 | 1028.2 |
| 20260502115254 | 0 | 214 | 3.2 | 4.8 | 0.00 | 0.00 | 0.00 | 55 | 1028.1 |
| 20260502114750 | 0 | 222 | 3.2 | 4.8 | 0.00 | 0.00 | 0.00 | 57 | 1027.8 |
| 20260502114247 | 0 | 216 | 4.8 | 6.4 | 0.00 | 0.00 | 0.00 | 57 | 1028.1 |
| 20260502113744 | -1 | 230 | 1.6 | 4.8 | 0.00 | 0.00 | 0.00 | 60 | 1028.1 |
| 20260502113242 | -1 | 217 | 3.2 | 4.8 | 0.00 | 0.00 | 0.00 | 61 | 1028.2 |
| 20260502112740 | -1 | 211 | 4.8 | 4.8 | 0.00 | 0.00 | 0.00 | 61 | 1027.9 |
| 20260502112237 | 0 | 222 | 4.8 | 4.8 | 0.00 | 0.00 | 0.00 | 58 | 1027.9 |
| 20260502111734 | 0 | 228 | 3.2 | 4.8 | 0.00 | 0.00 | 0.00 | 61 | 1028.1 |
| 20260502111232 | 0 | 228 | 6.4 | 6.4 | 0.00 | 0.00 | 0.00 | 56 | 1027.9 |
| 20260502110729 | 0 | 242 | 4.8 | 9.7 | 0.00 | 0.00 | 0.00 | 55 | 1028.2 |
| 20260502110227 | 0 | 230 | 4.8 | 6.4 | 0.00 | 0.00 | 0.00 | 55 | 1028.1 |
| 20260502105724 | 0 | 223 | 4.8 | 6.4 | 0.00 | 0.00 | 0.00 | 55 | 1028.1 |
| 20260502105220 | 0 | 225 | 3.2 | 6.4 | 0.00 | 0.00 | 0.00 | 57 | 1027.8 |
| 20260502104718 | 0 | 198 | 6.4 | 9.7 | 0.00 | 0.00 | 0.00 | 55 | 1028.1 |
| 20260502104216 | 0 | 251 | 4.8 | 9.7 | 0.00 | 0.00 | 0.00 | 57 | 1028.2 |
| 20260502103713 | 0 | 237 | 4.8 | 6.4 | 0.00 | 0.00 | 0.00 | 56 | 1028.1 |
| 20260502103211 | 0 | 222 | 3.2 | 4.8 | 0.00 | 0.00 | 0.00 | 58 | 1028.2 |
| 20260502102707 | 0 | 230 | 4.8 | 6.4 | 0.00 | 0.00 | 0.00 | 57 | 1028.1 |
| 20260502102204 | 0 | 239 | 3.2 | 11.3 | 0.00 | 0.00 | 0.00 | 57 | 1028.2 |
| 20260502101702 | -1 | 222 | 3.2 | 4.8 | 0.00 | 0.00 | 0.00 | 64 | 1027.9 |
| 20260502101200 | -1 | 229 | 6.4 | 6.4 | 0.00 | 0.00 | 0.00 | 64 | 1028.2 |
| 20260502100658 | -1 | 233 | 3.2 | 4.8 | 0.00 | 0.00 | 0.00 | 63 | 1027.9 |
| 20260502100156 | -1 | 216 | 4.8 | 6.4 | 0.00 | 0.00 | 0.00 | 65 | 1027.9 |
| 20260502091130 | -2 | 218 | 4.8 | 6.4 | 0.00 | 0.00 | 0.00 | 75 | 1027.8 |
| 20260502090627 | -2 | 201 | 4.8 | 4.8 | 0.00 | 0.00 | 0.00 | 77 | 1027.8 |
| 20260502090124 | -2 | 209 | 4.8 | 4.8 | 0.00 | 0.00 | 0.00 | 77 | 1027.7 |
| 20260502071522 | -2 | 204 | 4.8 | 4.8 | 0.00 | 0.00 | 0.00 | 81 | 1028.3 |
| 20260502071020 | -2 | 212 | 4.8 | 6.4 | 0.00 | 0.00 | 0.00 | 79 | 1028.3 |
| 20260502070518 | -2 | 206 | 4.8 | 4.8 | 0.00 | 0.00 | 0.00 | 81 | 1028.5 |
| 20260502070016 | -2 | 211 | 4.8 | 4.8 | 0.00 | 0.00 | 0.00 | 82 | 1028.5 |
| 20260502065514 | -3 | 212 | 4.8 | 4.8 | 0.00 | 0.00 | 0.00 | 82 | 1028.3 |
| 20260502065011 | -3 | 210 | 3.2 | 4.8 | 0.00 | 0.00 | 0.00 | 83 | 1028.6 |
| 20260502064510 | -3 | 215 | 3.2 | 4.8 | 0.00 | 0.00 | 0.00 | 83 | 1028.6 |
| 20260502064006 | -3 | 208 | 4.8 | 4.8 | 0.00 | 0.00 | 0.00 | 83 | 1028.6 |
| 20260502063504 | -3 | 208 | 4.8 | 4.8 | 0.00 | 0.00 | 0.00 | 83 | 1028.5 |
| 20260502063002 | -2 | 211 | 3.2 | 4.8 | 0.00 | 0.00 | 0.00 | 83 | 1028.6 |
| 20260502062458 | -2 | 207 | 4.8 | 4.8 | 0.00 | 0.00 | 0.00 | 83 | 1028.7 |
| 20260502061957 | -2 | 211 | 4.8 | 4.8 | 0.00 | 0.00 | 0.00 | 84 | 1028.6 |
| 20260502061454 | -2 | 210 | 3.2 | 4.8 | 0.00 | 0.00 | 0.00 | 83 | 1028.5 |
| 20260502060950 | -2 | 214 | 3.2 | 4.8 | 0.00 | 0.00 | 0.00 | 84 | 1028.6 |
| 20260502060446 | -2 | 218 | 3.2 | 3.2 | 0.00 | 0.00 | 0.00 | 83 | 1028.6 |
| 20260502055943 | -2 | 219 | 3.2 | 4.8 | 0.00 | 0.89 | 0.89 | 82 | 1029.0 |
| 20260502055440 | -2 | 215 | 3.2 | 4.8 | 0.00 | 0.89 | 0.89 | 83 | 1028.5 |
| 20260502054935 | -2 | 220 | 3.2 | 3.2 | 0.00 | 0.89 | 0.89 | 83 | 1028.7 |
| 20260502054432 | -2 | 212 | 4.8 | 4.8 | 0.00 | 0.89 | 0.89 | 83 | 1028.5 |
| 20260502053929 | -2 | 218 | 3.2 | 4.8 | 0.00 | 0.89 | 0.89 | 83 | 1028.7 |
| 20260502053426 | -2 | 209 | 4.8 | 4.8 | 0.00 | 0.89 | 0.89 | 83 | 1028.7 |
| 20260502052924 | -2 | 214 | 3.2 | 4.8 | 0.00 | 0.89 | 0.89 | 84 | 1028.6 |
| 20260502052422 | -2 | 220 | 4.8 | 4.8 | 0.00 | 0.89 | 0.89 | 82 | 1028.7 |
| 20260502051920 | -2 | 207 | 4.8 | 4.8 | 0.00 | 0.89 | 0.89 | 80 | 1028.6 |
| 20260502051418 | -2 | 201 | 4.8 | 4.8 | 0.00 | 0.89 | 0.89 | 80 | 1028.6 |
| 20260502050914 | -2 | 222 | 3.2 | 4.8 | 0.00 | 0.89 | 0.89 | 80 | 1028.6 |
| 20260502050411 | -2 | 225 | 1.6 | 4.8 | 0.00 | 0.89 | 0.89 | 80 | 1028.5 |
| 20260502045908 | -2 | 225 | 3.2 | 4.8 | 0.00 | 0.89 | 0.89 | 80 | 1028.6 |
| 20260502045405 | -2 | 212 | 4.8 | 4.8 | 0.00 | 0.89 | 0.89 | 79 | 1028.6 |
| 20260502044902 | -1 | 207 | 3.2 | 4.8 | 0.00 | 0.89 | 0.89 | 79 | 1028.6 |
| 20260502044358 | -1 | 233 | 1.6 | 3.2 | 0.00 | 0.89 | 0.89 | 79 | 1028.5 |
| 20260502043855 | -1 | 246 | 3.2 | 4.8 | 0.00 | 0.89 | 0.89 | 80 | 1028.3 |
| 20260502043353 | -1 | 242 | 0.0 | 3.2 | 0.00 | 0.89 | 0.89 | 80 | 1028.3 |
| 20260502042852 | -1 | 225 | 1.6 | 3.2 | 0.00 | 0.89 | 0.89 | 82 | 1028.2 |
| 20260502042350 | -1 | 211 | 3.2 | 4.8 | 0.00 | 0.89 | 0.89 | 80 | 1028.5 |
| 20260502041847 | -1 | 226 | 1.6 | 3.2 | 0.00 | 0.89 | 0.89 | 82 | 1028.3 |
| 20260502041344 | -1 | 225 | 3.2 | 4.8 | 0.00 | 0.89 | 0.89 | 82 | 1028.3 |
| 20260502040841 | -2 | 202 | 4.8 | 4.8 | 0.00 | 0.89 | 0.89 | 81 | 1028.3 |
| 20260502040338 | -2 | 215 | 3.2 | 4.8 | 0.00 | 0.89 | 0.89 | 83 | 1028.3 |
| 20260502035834 | -1 | 226 | 3.2 | 4.8 | 0.00 | 0.89 | 0.89 | 83 | 1028.1 |
| 20260502035331 | -1 | 215 | 3.2 | 4.8 | 0.00 | 0.89 | 0.89 | 84 | 1027.9 |
| 20260502034828 | -1 | 211 | 3.2 | 4.8 | 0.00 | 0.89 | 0.89 | 83 | 1028.1 |
| 20260502034326 | -1 | 216 | 4.8 | 4.8 | 0.00 | 0.89 | 0.89 | 82 | 1028.2 |
| 20260502033825 | -1 | 206 | 4.8 | 4.8 | 0.00 | 0.89 | 0.89 | 83 | 1027.9 |
| 20260502033322 | -1 | 207 | 4.8 | 4.8 | 0.00 | 0.89 | 0.89 | 83 | 1027.7 |
| 20260502032818 | -1 | 210 | 4.8 | 4.8 | 0.00 | 0.89 | 0.89 | 82 | 1027.8 |
| 20260502032314 | -1 | 209 | 4.8 | 4.8 | 0.00 | 0.89 | 0.89 | 82 | 1027.5 |
| 20260502031812 | -1 | 214 | 4.8 | 4.8 | 0.00 | 0.89 | 0.89 | 82 | 1027.8 |
| 20260502031310 | -1 | 210 | 4.8 | 4.8 | 0.00 | 0.89 | 0.89 | 82 | 1027.7 |
| 20260502030809 | -1 | 220 | 4.8 | 4.8 | 0.00 | 0.89 | 0.89 | 82 | 1027.5 |
| 20260502030306 | -1 | 212 | 3.2 | 4.8 | 0.00 | 0.89 | 0.89 | 82 | 1027.5 |
| 20260502025803 | -1 | 216 | 4.8 | 4.8 | 0.00 | 0.89 | 0.89 | 81 | 1027.4 |
| 20260502025301 | -1 | 211 | 4.8 | 4.8 | 0.00 | 0.89 | 0.89 | 81 | 1027.4 |
| 20260502024759 | -1 | 210 | 4.8 | 4.8 | 0.00 | 0.89 | 0.89 | 83 | 1027.4 |
| 20260502024256 | -1 | 209 | 4.8 | 4.8 | 0.00 | 0.89 | 0.89 | 82 | 1027.1 |
| 20260502023754 | -1 | 216 | 3.2 | 4.8 | 0.00 | 0.89 | 0.89 | 81 | 1027.3 |
| 20260502023252 | -1 | 220 | 4.8 | 4.8 | 0.00 | 0.89 | 0.89 | 82 | 1027.0 |
| 20260502022749 | -1 | 212 | 4.8 | 4.8 | 0.00 | 0.89 | 0.89 | 81 | 1027.0 |
| 20260502022245 | -1 | 208 | 4.8 | 4.8 | 0.00 | 0.89 | 0.89 | 83 | 1027.0 |
| 20260502021742 | -1 | 214 | 4.8 | 4.8 | 0.00 | 0.89 | 0.89 | 81 | 1027.0 |
| 20260502021240 | -1 | 214 | 4.8 | 4.8 | 0.00 | 0.89 | 0.89 | 84 | 1026.8 |
| 20260502020737 | -1 | 208 | 4.8 | 4.8 | 0.00 | 0.89 | 0.89 | 82 | 1026.9 |
| 20260502020234 | 0 | 215 | 4.8 | 4.8 | 0.00 | 0.89 | 0.89 | 81 | 1026.9 |
| 20260502015732 | 0 | 220 | 3.2 | 4.8 | 0.00 | 0.89 | 0.89 | 81 | 1026.9 |
| 20260502015228 | 0 | 212 | 4.8 | 4.8 | 0.00 | 0.89 | 0.89 | 81 | 1026.9 |
| 20260502014725 | 0 | 213 | 3.2 | 4.8 | 0.00 | 0.89 | 0.89 | 79 | 1026.4 |
| 20260502014222 | 0 | 220 | 3.2 | 4.8 | 0.00 | 0.89 | 0.89 | 79 | 1026.5 |